,,,PA_Meas_PMT16A,,PR_Meas_QMR101_102,,RH_Meas_QMH101,,SR_Meas_QMS101,,TA_Meas_QMH101,,GenWind,,GenWind,
date,time,status,PA,status,PR,status,RH,status,SR,status,TA,status,DirAvg,status,SpdAvg,
2011-10-11, 00:00:04,VALID,1001.57,VALID,0,VALID,92.265,VALID,0,VALID,23.1921,VALID,58,VALID,0,
2011-10-11, 00:01:04,VALID,1001.53,VALID,0,VALID,92.2497,VALID,0.104696,VALID,23.1531,VALID,58,VALID,0,
2011-10-11, 00:02:04,VALID,1001.53,VALID,0,VALID,92.326,VALID,0,VALID,23.1336,VALID,58,VALID,0,
2011-10-11, 00:03:04,VALID,1001.46,VALID,0,VALID,92.4786,VALID,0,VALID,23.1141,VALID,58,VALID,0,
2011-10-11, 00:04:04,VALID,1001.47,VALID,0,VALID,92.5397,VALID,0,VALID,23.0751,VALID,58,VALID,0,
2011-10-11, 00:05:04,VALID,1001.47,VALID,0,VALID,92.5702,VALID,0.104696,VALID,23.0166,VALID,45,VALID,0,
2011-10-11, 00:06:04,VALID,1001.47,VALID,0,VALID,92.5854,VALID,0,VALID,22.9988,VALID,45,VALID,0,
2011-10-11, 00:07:04,VALID,1001.46,VALID,0,VALID,92.6617,VALID,0,VALID,22.9598,VALID,45,VALID,0,
2011-10-11, 00:08:04,VALID,1001.44,VALID,0,VALID,92.7457,VALID,0,VALID,22.9013,VALID,45,VALID,0,
2011-10-11, 00:09:04,VALID,1001.42,VALID,0,VALID,92.883,VALID,0,VALID,22.88,VALID,42,VALID,0,
2011-10-11, 00:10:04,VALID,1001.42,VALID,0,VALID,92.9669,VALID,0,VALID,22.8605,VALID,42,VALID,0.0105469,
2011-10-11, 00:11:04,VALID,1001.43,VALID,0,VALID,93.0508,VALID,0,VALID,22.841,VALID,36,VALID,0.971875,
2011-10-11, 00:12:04,VALID,1001.43,VALID,0,VALID,93.1271,VALID,0,VALID,22.8215,VALID,36,VALID,0.876172,
2011-10-11, 00:13:04,VALID,1001.44,VALID,0,VALID,93.1958,VALID,0,VALID,22.8427,VALID,36,VALID,0.683203,
2011-10-11, 00:14:04,VALID,1001.47,VALID,0,VALID,93.2492,VALID,0,VALID,22.802,VALID,36,VALID,0.651953,
2011-10-11, 00:15:04,VALID,1001.51,VALID,0,VALID,93.2797,VALID,0,VALID,22.802,VALID,36,VALID,0.622656,
2011-10-11, 00:16:04,VALID,1001.51,VALID,0,VALID,93.3103,VALID,0,VALID,22.7825,VALID,36,VALID,0.559766,
2011-10-11, 00:17:04,VALID,1001.49,VALID,0,VALID,93.3255,VALID,0,VALID,22.763,VALID,36,VALID,0.716406,
2011-10-11, 00:18:04,VALID,1001.49,VALID,0,VALID,93.3637,VALID,0,VALID,22.7435,VALID,36,VALID,0.75625,
2011-10-11, 00:19:04,VALID,1001.47,VALID,0,VALID,93.4171,VALID,0,VALID,22.8037,VALID,36,VALID,0.802344,
2011-10-11, 00:20:04,VALID,1001.47,VALID,0,VALID,93.4628,VALID,0,VALID,22.802,VALID,36,VALID,0.799219,
2011-10-11, 00:21:04,VALID,1001.44,VALID,0,VALID,93.4781,VALID,0,VALID,22.802,VALID,36,VALID,0.815625,
2011-10-11, 00:22:04,VALID,1001.43,VALID,0,VALID,93.5163,VALID,0,VALID,22.8232,VALID,36,VALID,0.772266,
2011-10-11, 00:23:04,VALID,1001.44,VALID,0,VALID,93.5315,VALID,0,VALID,22.841,VALID,36,VALID,0.554688,
2011-10-11, 00:24:04,VALID,1001.41,VALID,0,VALID,93.562,VALID,0,VALID,22.8215,VALID,36,VALID,0.240625,
2011-10-11, 00:25:04,VALID,1001.39,VALID,0,VALID,93.5468,VALID,0,VALID,22.8215,VALID,36,VALID,0,
2011-10-11, 00:26:04,VALID,1001.4,VALID,0,VALID,93.5086,VALID,0.104696,VALID,22.7842,VALID,36,VALID,0,
2011-10-11, 00:27:04,VALID,1001.38,VALID,0,VALID,93.5163,VALID,0,VALID,22.7647,VALID,36,VALID,0,
2011-10-11, 00:28:04,VALID,1001.38,VALID,0,VALID,93.5163,VALID,0,VALID,22.7647,VALID,36,VALID,0,
2011-10-11, 00:29:04,VALID,1001.38,VALID,0,VALID,93.5315,VALID,0,VALID,22.724,VALID,36,VALID,0.687109,
2011-10-11, 00:30:04,VALID,1001.38,VALID,0,VALID,93.5468,VALID,0,VALID,22.763,VALID,36,VALID,0.777734,
2011-10-11, 00:31:04,VALID,1001.4,VALID,0,VALID,93.5773,VALID,0,VALID,22.7825,VALID,36,VALID,0.8,
2011-10-11, 00:32:04,VALID,1001.37,VALID,0,VALID,93.6078,VALID,0,VALID,22.802,VALID,36,VALID,0.825781,
2011-10-11, 00:33:04,VALID,1001.39,VALID,0,VALID,93.6231,VALID,0,VALID,22.802,VALID,36,VALID,0.778125,
2011-10-11, 00:34:04,VALID,1001.37,VALID,0,VALID,93.6002,VALID,0,VALID,22.7825,VALID,36,VALID,0.835547,
2011-10-11, 00:35:04,VALID,1001.31,VALID,0,VALID,93.6078,VALID,0,VALID,22.7825,VALID,36,VALID,0.723828,
2011-10-11, 00:36:04,VALID,1001.34,VALID,0,VALID,93.5849,VALID,0,VALID,22.7647,VALID,36,VALID,0.627344,
2011-10-11, 00:37:04,VALID,1001.32,VALID,0,VALID,93.5926,VALID,0,VALID,22.7469,VALID,36,VALID,0.548437,
2011-10-11, 00:38:04,VALID,1001.32,VALID,0,VALID,93.5773,VALID,0,VALID,22.7452,VALID,36,VALID,0.535937,
2011-10-11, 00:39:04,VALID,1001.31,VALID,0,VALID,93.6002,VALID,0,VALID,22.7452,VALID,36,VALID,0.532422,
2011-10-11, 00:40:04,VALID,1001.32,VALID,0,VALID,93.6307,VALID,0,VALID,22.7664,VALID,36,VALID,0.584766,
2011-10-11, 00:41:04,VALID,1001.31,VALID,0,VALID,93.6383,VALID,0,VALID,22.7452,VALID,36,VALID,0.548828,
2011-10-11, 00:42:04,VALID,1001.3,VALID,0,VALID,93.6612,VALID,0,VALID,22.8055,VALID,36,VALID,0.553516,
2011-10-11, 00:43:04,VALID,1001.28,VALID,0,VALID,93.6917,VALID,0,VALID,22.7842,VALID,36,VALID,0.511328,
2011-10-11, 00:44:04,VALID,1001.25,VALID,0,VALID,93.6917,VALID,0,VALID,22.8055,VALID,36,VALID,0.531641,
2011-10-11, 00:45:04,VALID,1001.26,VALID,0,VALID,93.6994,VALID,0,VALID,22.8055,VALID,36,VALID,0.457031,
2011-10-11, 00:46:04,VALID,1001.27,VALID,0,VALID,93.6994,VALID,0,VALID,22.7647,VALID,36,VALID,0.455078,
2011-10-11, 00:47:04,VALID,1001.24,VALID,0,VALID,93.6917,VALID,0,VALID,22.7452,VALID,36,VALID,0.391797,
2011-10-11, 00:48:04,VALID,1001.27,VALID,0,VALID,93.6917,VALID,0,VALID,22.7469,VALID,36,VALID,0.446875,
2011-10-11, 00:49:04,VALID,1001.26,VALID,0,VALID,93.7223,VALID,0,VALID,22.7469,VALID,36,VALID,0.426562,
2011-10-11, 00:50:04,VALID,1001.24,VALID,0,VALID,93.6994,VALID,0,VALID,22.7452,VALID,36,VALID,0.382031,
2011-10-11, 00:51:04,VALID,1001.22,VALID,0,VALID,93.7299,VALID,0,VALID,22.7647,VALID,36,VALID,0,
2011-10-11, 00:52:04,VALID,1001.22,VALID,0,VALID,93.7757,VALID,0,VALID,22.7825,VALID,36,VALID,0,
2011-10-11, 00:53:04,VALID,1001.2,VALID,0,VALID,93.7757,VALID,0,VALID,22.8427,VALID,36,VALID,0,
2011-10-11, 00:54:04,VALID,1001.18,VALID,0,VALID,93.8062,VALID,0.104696,VALID,22.8427,VALID,36,VALID,0,
2011-10-11, 00:55:04,VALID,1001.22,VALID,0,VALID,93.8138,VALID,0.104696,VALID,22.8623,VALID,36,VALID,0.00585938,
2011-10-11, 00:56:04,VALID,1001.21,VALID,0,VALID,93.8138,VALID,0.104696,VALID,22.841,VALID,36,VALID,0,
2011-10-11, 00:57:04,VALID,1001.21,VALID,0,VALID,93.852,VALID,0,VALID,22.8623,VALID,36,VALID,0,
2011-10-11, 00:58:04,VALID,1001.18,VALID,0,VALID,93.8367,VALID,0,VALID,22.8427,VALID,36,VALID,0,
2011-10-11, 00:59:04,VALID,1001.21,VALID,0,VALID,93.8443,VALID,0,VALID,22.8427,VALID,36,VALID,0,
2011-10-11, 01:00:04,VALID,1001.18,VALID,0,VALID,93.852,VALID,0,VALID,22.8427,VALID,36,VALID,0,
2011-10-11, 01:01:04,VALID,1001.15,VALID,0,VALID,93.8596,VALID,0,VALID,22.8623,VALID,36,VALID,0,
2011-10-11, 01:02:04,VALID,1001.16,VALID,0,VALID,93.8901,VALID,0,VALID,22.8623,VALID,36,VALID,0,
2011-10-11, 01:03:04,VALID,1001.13,VALID,0,VALID,93.8748,VALID,0,VALID,22.8427,VALID,36,VALID,0,
2011-10-11, 01:04:04,VALID,1001.12,VALID,0,VALID,93.8672,VALID,0,VALID,22.8232,VALID,36,VALID,0,
2011-10-11, 01:05:04,VALID,1001.11,VALID,0,VALID,93.9054,VALID,0,VALID,22.802,VALID,36,VALID,0,
2011-10-11, 01:06:04,VALID,1001.12,VALID,0,VALID,93.8901,VALID,0,VALID,22.8427,VALID,36,VALID,0,
2011-10-11, 01:07:04,VALID,1001.09,VALID,0,VALID,93.913,VALID,0,VALID,22.8215,VALID,36,VALID,0,
2011-10-11, 01:08:04,VALID,1001.07,VALID,0,VALID,93.9435,VALID,0,VALID,22.8605,VALID,36,VALID,0,
2011-10-11, 01:09:04,VALID,1001.09,VALID,0,VALID,93.9435,VALID,0,VALID,22.88,VALID,36,VALID,0.417578,
2011-10-11, 01:10:04,VALID,1001.03,VALID,0,VALID,93.9588,VALID,0.104696,VALID,22.9208,VALID,57,VALID,0.827734,
2011-10-11, 01:11:04,VALID,1001.04,VALID,0,VALID,93.9511,VALID,0,VALID,22.9403,VALID,78,VALID,0.835938,
2011-10-11, 01:12:04,VALID,1001.01,VALID,0,VALID,93.9664,VALID,0,VALID,22.9385,VALID,87,VALID,1.02773,
2011-10-11, 01:13:04,VALID,1001,VALID,0,VALID,93.9435,VALID,0,VALID,22.9988,VALID,89,VALID,0.987891,
2011-10-11, 01:14:04,VALID,1001,VALID,0,VALID,93.9435,VALID,0.104696,VALID,23.0166,VALID,89,VALID,0.766797,
2011-10-11, 01:15:05,VALID,1000.99,VALID,0,VALID,93.9206,VALID,0,VALID,23.0361,VALID,89,VALID,0.755469,
2011-10-11, 01:16:05,VALID,1001,VALID,0,VALID,93.8977,VALID,0,VALID,23.0964,VALID,89,VALID,0.445703,
2011-10-11, 01:17:05,VALID,1000.96,VALID,0,VALID,93.8901,VALID,0,VALID,23.1354,VALID,89,VALID,0.350781,
2011-10-11, 01:18:04,VALID,1000.97,VALID,0,VALID,93.8825,VALID,0,VALID,23.1549,VALID,89,VALID,0,
2011-10-11, 01:19:05,VALID,1000.93,VALID,0,VALID,93.8291,VALID,0,VALID,23.1531,VALID,89,VALID,0,
2011-10-11, 01:20:05,VALID,1000.89,VALID,0,VALID,93.8062,VALID,0,VALID,23.1336,VALID,89,VALID,0,
2011-10-11, 01:21:05,VALID,1000.87,VALID,0,VALID,93.7604,VALID,0,VALID,23.1744,VALID,89,VALID,0,
2011-10-11, 01:22:05,VALID,1000.85,VALID,0,VALID,93.7299,VALID,0,VALID,23.1531,VALID,89,VALID,0,
2011-10-11, 01:23:05,VALID,1000.86,VALID,0,VALID,93.6994,VALID,0,VALID,23.1336,VALID,89,VALID,0.189063,
2011-10-11, 01:24:05,VALID,1000.86,VALID,0,VALID,93.6307,VALID,0,VALID,23.1549,VALID,89,VALID,0,
2011-10-11, 01:25:05,VALID,1000.86,VALID,0,VALID,93.5315,VALID,0,VALID,23.0964,VALID,89,VALID,0,
2011-10-11, 01:26:05,VALID,1000.86,VALID,0,VALID,93.4018,VALID,0,VALID,23.0183,VALID,89,VALID,0,
2011-10-11, 01:27:05,VALID,1000.86,VALID,0,VALID,93.3255,VALID,0,VALID,22.9988,VALID,89,VALID,0,
2011-10-11, 01:28:05,VALID,1000.85,VALID,0,VALID,93.3026,VALID,0,VALID,22.9793,VALID,89,VALID,0,
2011-10-11, 01:29:05,VALID,1000.81,VALID,0,VALID,93.3179,VALID,0,VALID,22.9988,VALID,89,VALID,0,
2011-10-11, 01:30:05,VALID,1000.8,VALID,0,VALID,93.295,VALID,0,VALID,22.9793,VALID,89,VALID,0,
2011-10-11, 01:31:05,VALID,1000.82,VALID,0,VALID,93.3331,VALID,0,VALID,22.9988,VALID,89,VALID,0,
2011-10-11, 01:32:05,VALID,1000.82,VALID,0,VALID,93.3637,VALID,0,VALID,23.0361,VALID,89,VALID,0,
2011-10-11, 01:33:05,VALID,1000.81,VALID,0,VALID,93.3103,VALID,0.104696,VALID,23.0166,VALID,89,VALID,0.147656,
2011-10-11, 01:34:05,VALID,1000.82,VALID,0,VALID,93.2111,VALID,0.104696,VALID,22.9385,VALID,59,VALID,0.926172,
2011-10-11, 01:35:05,VALID,1000.84,VALID,0,VALID,93.1653,VALID,0.104696,VALID,22.9403,VALID,51,VALID,0.875,
2011-10-11, 01:36:05,VALID,1000.86,VALID,0,VALID,93.1805,VALID,0,VALID,22.9385,VALID,51,VALID,0.673828,
2011-10-11, 01:37:05,VALID,1000.87,VALID,0,VALID,93.15,VALID,0,VALID,22.9598,VALID,51,VALID,0.645312,
2011-10-11, 01:38:05,VALID,1000.86,VALID,0,VALID,93.1348,VALID,0,VALID,22.9403,VALID,51,VALID,0.468359,
2011-10-11, 01:39:05,VALID,1000.85,VALID,0,VALID,93.1348,VALID,0,VALID,22.9598,VALID,51,VALID,0.346875,
2011-10-11, 01:40:05,VALID,1000.84,VALID,0,VALID,93.15,VALID,0,VALID,22.9208,VALID,51,VALID,0,
2011-10-11, 01:41:05,VALID,1000.8,VALID,0,VALID,93.1348,VALID,0,VALID,22.9208,VALID,51,VALID,0,
2011-10-11, 01:42:05,VALID,1000.82,VALID,0,VALID,93.1119,VALID,0,VALID,22.841,VALID,51,VALID,0,
2011-10-11, 01:43:05,VALID,1000.81,VALID,0,VALID,93.0737,VALID,0,VALID,22.8232,VALID,51,VALID,0,
2011-10-11, 01:44:05,VALID,1000.82,VALID,0,VALID,93.089,VALID,0,VALID,22.8037,VALID,51,VALID,0,
2011-10-11, 01:45:05,VALID,1000.83,VALID,0,VALID,93.0966,VALID,0,VALID,22.7842,VALID,51,VALID,0,
2011-10-11, 01:46:05,VALID,1000.82,VALID,0,VALID,93.1348,VALID,0,VALID,22.763,VALID,51,VALID,0,
2011-10-11, 01:47:05,VALID,1000.79,VALID,0,VALID,93.1805,VALID,0,VALID,22.8037,VALID,51,VALID,0,
2011-10-11, 01:48:05,VALID,1000.75,VALID,0,VALID,93.2721,VALID,0,VALID,22.8232,VALID,51,VALID,0,
2011-10-11, 01:49:05,VALID,1000.73,VALID,0,VALID,93.3408,VALID,0,VALID,22.8215,VALID,51,VALID,0,
2011-10-11, 01:50:05,VALID,1000.75,VALID,0,VALID,93.3713,VALID,0,VALID,22.8623,VALID,51,VALID,0,
2011-10-11, 01:51:05,VALID,1000.73,VALID,0,VALID,93.4171,VALID,0,VALID,22.8623,VALID,51,VALID,0,
2011-10-11, 01:52:05,VALID,1000.7,VALID,0,VALID,93.4323,VALID,0,VALID,22.8623,VALID,51,VALID,0,
2011-10-11, 01:53:05,VALID,1000.69,VALID,0,VALID,93.4781,VALID,0,VALID,22.841,VALID,51,VALID,0,
2011-10-11, 01:54:05,VALID,1000.67,VALID,0,VALID,93.501,VALID,0,VALID,22.8623,VALID,51,VALID,0,
2011-10-11, 01:55:05,VALID,1000.62,VALID,0,VALID,93.5391,VALID,0,VALID,22.8605,VALID,51,VALID,0,
2011-10-11, 01:56:05,VALID,1000.6,VALID,0,VALID,93.5849,VALID,0,VALID,22.9013,VALID,51,VALID,0,
2011-10-11, 01:57:05,VALID,1000.58,VALID,0,VALID,93.6078,VALID,0,VALID,22.9208,VALID,51,VALID,0,
2011-10-11, 01:58:05,VALID,1000.55,VALID,0,VALID,93.6002,VALID,0,VALID,22.9208,VALID,51,VALID,0,
2011-10-11, 01:59:05,VALID,1000.51,VALID,0,VALID,93.6231,VALID,0,VALID,22.9208,VALID,51,VALID,0,
2011-10-11, 02:00:05,VALID,1000.5,VALID,0,VALID,93.6383,VALID,0,VALID,22.9208,VALID,51,VALID,0,
2011-10-11, 02:01:05,VALID,1000.49,VALID,0,VALID,93.6612,VALID,0,VALID,22.9208,VALID,51,VALID,0,
2011-10-11, 02:02:05,VALID,1000.45,VALID,0,VALID,93.6688,VALID,0,VALID,22.9403,VALID,51,VALID,0,
2011-10-11, 02:03:05,VALID,1000.46,VALID,0,VALID,93.6841,VALID,0,VALID,22.9598,VALID,51,VALID,0,
2011-10-11, 02:04:05,VALID,1000.46,VALID,0,VALID,93.6612,VALID,0,VALID,22.9793,VALID,51,VALID,0,
2011-10-11, 02:05:05,VALID,1000.44,VALID,0,VALID,93.6536,VALID,0,VALID,22.9793,VALID,51,VALID,0,
2011-10-11, 02:06:05,VALID,1000.45,VALID,0,VALID,93.6307,VALID,0,VALID,22.9598,VALID,51,VALID,0,
2011-10-11, 02:07:05,VALID,1000.42,VALID,0,VALID,93.5849,VALID,0,VALID,22.9208,VALID,51,VALID,0,
2011-10-11, 02:08:05,VALID,1000.43,VALID,0,VALID,93.5163,VALID,0,VALID,22.8818,VALID,51,VALID,0,
2011-10-11, 02:09:05,VALID,1000.4,VALID,0,VALID,93.4628,VALID,0,VALID,22.8232,VALID,51,VALID,0.605078,
2011-10-11, 02:10:05,VALID,1000.43,VALID,0,VALID,93.4705,VALID,0,VALID,22.8232,VALID,51,VALID,0.983984,
2011-10-11, 02:11:05,VALID,1000.46,VALID,0,VALID,93.4476,VALID,0,VALID,22.8427,VALID,51,VALID,0.954297,
2011-10-11, 02:12:05,VALID,1000.49,VALID,0,VALID,93.4323,VALID,0,VALID,22.8427,VALID,51,VALID,0.811328,
2011-10-11, 02:13:05,VALID,1000.53,VALID,0,VALID,93.4094,VALID,0,VALID,22.8232,VALID,51,VALID,0.811328,
2011-10-11, 02:14:05,VALID,1000.56,VALID,0,VALID,93.3713,VALID,0,VALID,22.8037,VALID,23,VALID,1.10625,
2011-10-11, 02:15:05,VALID,1000.6,VALID,0,VALID,93.356,VALID,0,VALID,22.7647,VALID,19,VALID,1.26719,
2011-10-11, 02:16:05,VALID,1000.68,VALID,0,VALID,93.3713,VALID,0,VALID,22.8037,VALID,17,VALID,1.4,
2011-10-11, 02:17:05,VALID,1000.7,VALID,0,VALID,93.44,VALID,0,VALID,22.7825,VALID,11,VALID,1.05195,
2011-10-11, 02:18:05,VALID,1000.76,VALID,0,VALID,93.4705,VALID,0,VALID,22.8232,VALID,11,VALID,1.21406,
2011-10-11, 02:19:05,VALID,1000.75,VALID,0,VALID,93.5391,VALID,0,VALID,22.8623,VALID,11,VALID,1.02422,
2011-10-11, 02:20:05,VALID,1000.76,VALID,0,VALID,93.5849,VALID,0,VALID,22.9013,VALID,11,VALID,0.869531,
2011-10-11, 02:21:05,VALID,1000.76,VALID,0,VALID,93.6231,VALID,0,VALID,22.9403,VALID,11,VALID,0.525,
2011-10-11, 02:22:05,VALID,1000.76,VALID,0,VALID,93.6841,VALID,0,VALID,22.9598,VALID,11,VALID,0.0804688,
2011-10-11, 02:23:05,VALID,1000.74,VALID,0,VALID,93.6612,VALID,0,VALID,23.0183,VALID,11,VALID,0,
2011-10-11, 02:24:05,VALID,1000.74,VALID,0,VALID,93.6917,VALID,0,VALID,23.0166,VALID,11,VALID,0,
2011-10-11, 02:25:05,VALID,1000.72,VALID,0,VALID,93.7146,VALID,0,VALID,23.0378,VALID,11,VALID,0,
2011-10-11, 02:26:05,VALID,1000.72,VALID,0,VALID,93.7146,VALID,0,VALID,23.0573,VALID,11,VALID,0,
2011-10-11, 02:27:05,VALID,1000.73,VALID,0,VALID,93.7299,VALID,0,VALID,23.0964,VALID,11,VALID,0,
2011-10-11, 02:28:05,VALID,1000.71,VALID,0,VALID,93.7451,VALID,0,VALID,23.0946,VALID,11,VALID,0,
2011-10-11, 02:29:05,VALID,1000.68,VALID,0,VALID,93.7451,VALID,0,VALID,23.1159,VALID,11,VALID,0,
2011-10-11, 02:30:05,VALID,1000.71,VALID,0,VALID,93.7375,VALID,0,VALID,23.1549,VALID,11,VALID,0,
2011-10-11, 02:31:05,VALID,1000.7,VALID,0,VALID,93.7451,VALID,0,VALID,23.1549,VALID,11,VALID,0,
2011-10-11, 02:32:05,VALID,1000.72,VALID,0,VALID,93.768,VALID,0,VALID,23.1939,VALID,11,VALID,0.221875,
2011-10-11, 02:33:05,VALID,1000.74,VALID,0,VALID,93.7757,VALID,0,VALID,23.2329,VALID,11,VALID,0.959766,
2011-10-11, 02:34:05,VALID,1000.78,VALID,0,VALID,93.7528,VALID,0,VALID,23.2719,VALID,330,VALID,0.99375,
2011-10-11, 02:35:05,VALID,1000.81,VALID,0,VALID,93.7451,VALID,0,VALID,23.35,VALID,330,VALID,1.48984,
2011-10-11, 02:36:05,VALID,1000.87,VALID,0,VALID,93.7604,VALID,0,VALID,23.3677,VALID,325,VALID,1.50273,
2011-10-11, 02:37:05,VALID,1000.89,VALID,0,VALID,93.7451,VALID,0,VALID,23.3695,VALID,316,VALID,1.01523,
2011-10-11, 02:38:05,VALID,1000.93,VALID,0.5,VALID,93.7528,VALID,0,VALID,23.35,VALID,330,VALID,1.71602,
2011-10-11, 02:39:05,VALID,1000.92,VALID,0.5,VALID,93.7375,VALID,0,VALID,23.2915,VALID,337,VALID,1.42539,
2011-10-11, 02:40:05,VALID,1000.92,VALID,1,VALID,93.7451,VALID,0,VALID,23.2719,VALID,359,VALID,1.29531,
2011-10-11, 02:41:05,VALID,1000.88,VALID,1,VALID,93.7833,VALID,0,VALID,23.2915,VALID,23,VALID,1.86133,
2011-10-11, 02:42:05,VALID,1000.92,VALID,0.5,VALID,93.8214,VALID,0,VALID,23.389,VALID,32,VALID,2.16914,
2011-10-11, 02:43:05,VALID,1000.92,VALID,0,VALID,93.8596,VALID,0,VALID,23.4866,VALID,29,VALID,1.65898,
2011-10-11, 02:44:05,VALID,1000.91,VALID,0,VALID,93.8901,VALID,0,VALID,23.5451,VALID,22,VALID,1.4457,
2011-10-11, 02:45:05,VALID,1000.98,VALID,0,VALID,93.9206,VALID,0,VALID,23.5238,VALID,300,VALID,1.41523,
2011-10-11, 02:46:05,VALID,1000.96,VALID,0,VALID,93.9435,VALID,0,VALID,23.5061,VALID,329,VALID,0.967578,
2011-10-11, 02:47:05,VALID,1000.95,VALID,0,VALID,93.9664,VALID,0,VALID,23.5256,VALID,11,VALID,1.55469,
2011-10-11, 02:48:05,VALID,1000.96,VALID,0,VALID,93.9969,VALID,0,VALID,23.5238,VALID,33,VALID,1.1625,
2011-10-11, 02:49:05,VALID,1000.97,VALID,0,VALID,93.974,VALID,0,VALID,23.5841,VALID,32,VALID,0.725,
2011-10-11, 02:50:05,VALID,1000.99,VALID,0,VALID,94.0122,VALID,0,VALID,23.5823,VALID,32,VALID,0.779297,
2011-10-11, 02:51:05,VALID,1001.02,VALID,0,VALID,94.0122,VALID,0,VALID,23.5841,VALID,32,VALID,0.258203,
2011-10-11, 02:52:05,VALID,1001.05,VALID,0,VALID,94.0274,VALID,0,VALID,23.6214,VALID,357,VALID,0.653516,
2011-10-11, 02:53:05,VALID,1001.07,VALID,0,VALID,93.9969,VALID,0,VALID,23.6622,VALID,9,VALID,1.33789,
2011-10-11, 02:54:05,VALID,1001.1,VALID,0,VALID,94.0351,VALID,0,VALID,23.6427,VALID,4,VALID,1.52266,
2011-10-11, 02:55:05,VALID,1001.1,VALID,0,VALID,94.0274,VALID,0,VALID,23.6232,VALID,10,VALID,1.48516,
2011-10-11, 02:56:05,VALID,1001.15,VALID,0,VALID,94.0732,VALID,0,VALID,23.6427,VALID,4,VALID,1.17148,
2011-10-11, 02:57:05,VALID,1001.13,VALID,0,VALID,94.0808,VALID,0,VALID,23.6232,VALID,356,VALID,1.18672,
2011-10-11, 02:58:05,VALID,1001.18,VALID,0,VALID,94.0885,VALID,0,VALID,23.6232,VALID,15,VALID,1.36563,
2011-10-11, 02:59:05,VALID,1001.23,VALID,0,VALID,94.0808,VALID,0,VALID,23.6232,VALID,13,VALID,1.28945,
2011-10-11, 03:00:05,VALID,1001.28,VALID,0,VALID,94.1037,VALID,0,VALID,23.6232,VALID,5,VALID,1.25547,
2011-10-11, 03:01:05,VALID,1001.32,VALID,0,VALID,94.1037,VALID,0,VALID,23.6232,VALID,353,VALID,1.08906,
2011-10-11, 03:02:05,VALID,1001.34,VALID,0,VALID,94.0961,VALID,0,VALID,23.6427,VALID,321,VALID,1.12305,
2011-10-11, 03:03:05,VALID,1001.36,VALID,0,VALID,94.119,VALID,0,VALID,23.6214,VALID,317,VALID,0.731641,
2011-10-11, 03:04:05,VALID,1001.42,VALID,0,VALID,94.1037,VALID,0,VALID,23.6817,VALID,262,VALID,1.19336,
2011-10-11, 03:05:05,VALID,1001.41,VALID,0,VALID,94.1114,VALID,0,VALID,23.7207,VALID,224,VALID,1.17773,
2011-10-11, 03:06:05,VALID,1001.38,VALID,0,VALID,94.1343,VALID,0,VALID,23.6019,VALID,209,VALID,2.18008,
2011-10-11, 03:07:05,VALID,1001.39,VALID,0,VALID,94.18,VALID,0,VALID,23.5433,VALID,232,VALID,1.28516,
2011-10-11, 03:08:05,VALID,1001.37,VALID,0,VALID,94.1648,VALID,0,VALID,23.5433,VALID,226,VALID,1.33945,
2011-10-11, 03:09:05,VALID,1001.37,VALID,0,VALID,94.1648,VALID,0,VALID,23.5841,VALID,239,VALID,1.71094,
2011-10-11, 03:10:05,VALID,1001.4,VALID,0,VALID,94.1419,VALID,0,VALID,23.6232,VALID,209,VALID,0.998828,
2011-10-11, 03:11:05,VALID,1001.39,VALID,0,VALID,94.1495,VALID,0,VALID,23.6622,VALID,221,VALID,1.74297,
2011-10-11, 03:12:05,VALID,1001.41,VALID,0,VALID,94.1495,VALID,0,VALID,23.7012,VALID,261,VALID,0.957422,
2011-10-11, 03:13:05,VALID,1001.44,VALID,0,VALID,94.1571,VALID,0,VALID,23.7012,VALID,221,VALID,0.863672,
2011-10-11, 03:14:05,VALID,1001.45,VALID,0,VALID,94.1571,VALID,0,VALID,23.7207,VALID,236,VALID,1.24258,
2011-10-11, 03:15:05,VALID,1001.48,VALID,0,VALID,94.1495,VALID,0,VALID,23.7207,VALID,218,VALID,0.975,
2011-10-11, 03:16:05,VALID,1001.52,VALID,0,VALID,94.1724,VALID,0,VALID,23.6817,VALID,209,VALID,1.12266,
2011-10-11, 03:17:05,VALID,1001.52,VALID,0.5,VALID,94.1571,VALID,0,VALID,23.6622,VALID,219,VALID,1.18984,
2011-10-11, 03:18:05,VALID,1001.53,VALID,0,VALID,94.1419,VALID,0,VALID,23.6427,VALID,244,VALID,0.858203,
2011-10-11, 03:19:05,VALID,1001.54,VALID,0,VALID,94.1495,VALID,0,VALID,23.6232,VALID,244,VALID,0.545313,
2011-10-11, 03:20:05,VALID,1001.57,VALID,0,VALID,94.1495,VALID,0,VALID,23.6036,VALID,208,VALID,0.630078,
2011-10-11, 03:21:05,VALID,1001.57,VALID,0,VALID,94.1343,VALID,0,VALID,23.5841,VALID,208,VALID,1.16484,
2011-10-11, 03:22:05,VALID,1001.57,VALID,0,VALID,94.1266,VALID,0,VALID,23.5628,VALID,207,VALID,0.446094,
2011-10-11, 03:23:05,VALID,1001.54,VALID,0,VALID,94.1037,VALID,0,VALID,23.5646,VALID,223,VALID,1.26133,
2011-10-11, 03:24:05,VALID,1001.56,VALID,0,VALID,94.0885,VALID,0,VALID,23.5841,VALID,195,VALID,2.2457,
2011-10-11, 03:25:05,VALID,1001.52,VALID,0,VALID,94.0808,VALID,0,VALID,23.5841,VALID,221,VALID,1.68438,
2011-10-11, 03:26:05,VALID,1001.52,VALID,0,VALID,94.0732,VALID,0,VALID,23.6232,VALID,182,VALID,2.08125,
2011-10-11, 03:27:05,VALID,1001.52,VALID,0,VALID,94.0732,VALID,0,VALID,23.6622,VALID,187,VALID,2.29023,
2011-10-11, 03:28:05,VALID,1001.54,VALID,0,VALID,94.0808,VALID,0,VALID,23.6036,VALID,180,VALID,2.73984,
2011-10-11, 03:29:05,VALID,1001.56,VALID,0,VALID,94.0732,VALID,0,VALID,23.6019,VALID,183,VALID,2.76797,
2011-10-11, 03:30:05,VALID,1001.56,VALID,0,VALID,94.0656,VALID,0,VALID,23.5823,VALID,169,VALID,2.60859,
2011-10-11, 03:31:05,VALID,1001.54,VALID,0,VALID,94.0732,VALID,0,VALID,23.5433,VALID,172,VALID,3.09063,
2011-10-11, 03:32:05,VALID,1001.53,VALID,0,VALID,94.0351,VALID,0,VALID,23.428,VALID,192,VALID,2.52031,
2011-10-11, 03:33:05,VALID,1001.56,VALID,0,VALID,94.0122,VALID,0,VALID,23.389,VALID,177,VALID,2.79531,
2011-10-11, 03:34:05,VALID,1001.55,VALID,0,VALID,93.9893,VALID,0,VALID,23.3677,VALID,186,VALID,2.67109,
2011-10-11, 03:35:05,VALID,1001.58,VALID,0,VALID,93.9588,VALID,0,VALID,23.35,VALID,168,VALID,2.63047,
2011-10-11, 03:36:05,VALID,1001.55,VALID,0,VALID,93.9283,VALID,0,VALID,23.2719,VALID,179,VALID,3.23906,
2011-10-11, 03:37:05,VALID,1001.56,VALID,0,VALID,93.913,VALID,0,VALID,23.2524,VALID,186,VALID,2.24219,
2011-10-11, 03:38:05,VALID,1001.52,VALID,0,VALID,93.8748,VALID,0,VALID,23.1744,VALID,167,VALID,2.61406,
2011-10-11, 03:39:05,VALID,1001.54,VALID,0.5,VALID,93.8672,VALID,0,VALID,23.1141,VALID,167,VALID,2.24062,
2011-10-11, 03:40:05,VALID,1001.53,VALID,0,VALID,93.8672,VALID,0,VALID,23.0964,VALID,175,VALID,2.47305,
2011-10-11, 03:41:05,VALID,1001.52,VALID,0,VALID,93.8214,VALID,0,VALID,23.0769,VALID,176,VALID,2.59414,
2011-10-11, 03:42:05,VALID,1001.49,VALID,0,VALID,93.8291,VALID,0,VALID,23.0573,VALID,166,VALID,2.5207,
2011-10-11, 03:43:05,VALID,1001.49,VALID,0,VALID,93.8214,VALID,0,VALID,23.0183,VALID,170,VALID,2.53047,
2011-10-11, 03:44:05,VALID,1001.5,VALID,0,VALID,93.7985,VALID,0,VALID,23.0183,VALID,166,VALID,2.52539,
2011-10-11, 03:45:05,VALID,1001.52,VALID,0,VALID,93.8062,VALID,0,VALID,23.0183,VALID,165,VALID,2.23242,
2011-10-11, 03:46:05,VALID,1001.56,VALID,0,VALID,93.7909,VALID,0,VALID,23.0378,VALID,165,VALID,1.5793,
2011-10-11, 03:47:05,VALID,1001.57,VALID,0,VALID,93.8138,VALID,0,VALID,23.0183,VALID,170,VALID,2.03086,
2011-10-11, 03:48:05,VALID,1001.57,VALID,0,VALID,93.8291,VALID,0,VALID,23.0166,VALID,158,VALID,2.33477,
2011-10-11, 03:49:05,VALID,1001.6,VALID,0,VALID,93.8291,VALID,0,VALID,22.9988,VALID,156,VALID,1.87031,
2011-10-11, 03:50:05,VALID,1001.61,VALID,0,VALID,93.8367,VALID,0,VALID,22.9988,VALID,160,VALID,1.76094,
2011-10-11, 03:51:05,VALID,1001.6,VALID,0,VALID,93.8291,VALID,0,VALID,22.9776,VALID,156,VALID,1.16094,